SL-12 R/B(2), 33471

Orbit data source: Space-Track

SL-12 R/B(2), 33471 is space debris in MEO originally from a launch on Thu, 25 Dec 2008 UTC launched from the Tyuratam Missile And Space Complex (TTMTR). Debris objects in space refer to the collection of defunct objects orbiting the Earth. Examples of debris include non-operational satellites, rocket bodies, and fragments generated from explosions, collisions, or faulty payload assembly.

Loading next visibility...
Identifier
33471, 2008-067F
Orbit
MEO
Country
Flag of CISCIS
Related business
Manufacturer
RKKE
Mission
Spacecraft
Bus & Motor
BLOK DM2, 11D58M
Mass
2,440 kg wet, 2,440 kg dry
Launch date (UTC)
2008-12-25 (17 years ago)
Launch vehicle
Unknown
Launch site
Tyuratam Missile And Space Complex (TTMTR)
Object type
Payload
Rocket body
Debris
Shape & HBR
Cyl, 3.5 m
Radar Cross Section
26.008 m², Large (>1 m²)

Expand to show TLE details & history
Last TLE update: 15 hours ago

TLE from 15 hours ago
0 SL-12 R/B(2)
1 33471U 08067F   26125.85142175 -.00000006  00000-0  00000+0 0  9994
2 33471  64.7952  70.4111 0005134 340.6797 197.8426  2.13248926135199
Epoch: 2026-05-05T20:26Z
TLE epoch observation values (Epoch: 2026-05-05T20:26:02.839Z)
Latitude
1.2857°
Longitude
79.5679°
Altitude
19,131.044 km
Speed
3.952 km/s
True Right ascension
16h 39m 12s
True Declination
1° 17' 01"
Sunlit
Object was in daylight at epoch
Visualization orbit readout
Latitude
Unknown
Longitude
Unknown
Altitude
Unknown
Speed
Unknown
Apparent Right ascension
Unknown
Apparent Declination
Unknown
Sunlit
N/A
Visualization observer readout
Local Sidereal Time
19:13:04
Azimuth
Unknown
Elevation
Unknown
Doppler factor
Unknown
Orbital elements
Apogee altitude
19,130.881 km
Perigee altitude
19,104.702 km
Semi-major axis
25,495.928 km
Eccentricity
0.00051
Inclination
64.7952°
RAAN
70.4111°
Arg. of periapsis
340.6797°
True anomaly
197.82458°
Mean anomaly
197.8426°
Eccentric anomaly
197.83359°
Mean motion
0.53313 °/min
Orbital period
675.25 mins
BSTAR
0
Loading maneuver chart data...
Computing Atmospheric mass density...
Loading historical data...
Loading historical data...
Loading historical data...
Loading historical data...
Loading historical data...
Loading historical data...
Loading historical data...

Documentation

Showing up to 5 results
|